Regional Weather Roundup
Issued by NWS

Home | Current Version | Previous Version | Text Only | Print | Product List | Glossary On
Versions: 1 2 3 4 5 6 7 8 9 10 11 12 13 14 15 16 17 18 19 20 21 22 23 24 25 26 27 28 29 30 31 32 33 34 35 36 37 38 39 40 41 42 43 44 45 46 47 48 49 50
000
ASUS43 KTOP 281708
RWRKS

WEATHER ROUNDUP FOR KANSAS
NATIONAL WEATHER SERVICE GOODLAND KS
1200 PM CDT THU MAY 28 2015

NOTE:  "FAIR" INDICATES FEW OR NO CLOUDS BELOW 12,000 FEET WITH NO
SIGNIFICANT WEATHER AND/OR OBSTRUCTIONS TO VISIBILITY.

KSZ001>006-013>018-027>032-041>047-281800-
NORTHWEST KANSAS

CITY           SKY/WX    TMP DP  RH WIND       PRES   REMARKS
GOODLAND       CLOUDY    68  58  70 S10       30.01R
HAYS           CLOUDY    68  59  73 E7        30.04R
HILL CITY      CLOUDY    70  60  70 SE9       30.02S
RUSSELL        CLOUDY    71  63  75 E8        30.03R
$$

KSZ061>065-074>080-084>089-281800-
SOUTHWEST KANSAS

CITY           SKY/WX    TMP DP  RH WIND       PRES   REMARKS
DODGE CITY     PTSUNNY   72  57  59 E7        30.03S
ELKHART          N/A     74  60  61 S17         N/A
GARDEN CITY    PTSUNNY   73  54  51 S23G32    30.02S
GREAT BEND     CLOUDY    70  61  73 S5        30.03R
LIBERAL        PTSUNNY   73  57  56 SE20      30.05S
PRATT          CLOUDY    68  63  83 S7        30.04R
$$

KSZ066>073-081>083-090>101-281800-
SOUTHEAST KANSAS

CITY           SKY/WX    TMP DP  RH WIND       PRES   REMARKS
CHANUTE        TSTM      67  65  93 S13       30.12S
COFFEYVILLE    RAIN      66  66 100 CALM      30.12F FOG
HUTCHINSON     CLOUDY    72  65  78 SE14      30.04R
MEDICINE LODGE   N/A     71  64  78 S3        30.02R
NEWTON         CLOUDY    66  61  82 S8        30.08R
PARSONS        HVY RAIN  66  65  96 S6        30.14S FOG
WICHITA INTL   CLOUDY    70  65  84 S13       30.05R
WICHITA JABRA  CLOUDY    68  64  87 SE14      30.06R
WICHITA MCCONL CLOUDY    68  64  88 SE13      30.06R
WINFIELD       CLOUDY    67  64  90 SE12      30.09R
$$

KSZ007>012-019>026-033>040-048>060-102>105-281800-
NORTHEAST KANSAS

CITY           SKY/WX    TMP DP  RH WIND       PRES   REMARKS
CONCORDIA      PTSUNNY   74  63  68 S13       30.03R
EMPORIA        CLOUDY    68  64  87 SE15      30.06S
LAWRENCE       LGT RAIN  68  64  87 SE12      30.08R
MANHATTAN      CLOUDY    73  65  75 S8        30.04R
MARYSVILLE     CLOUDY    70  63  78 S12       30.03S
OLATHE IND     CLOUDY    69  64  84 E9        30.09S
OLATHE EXE     CLOUDY    70  65  84 E8        30.08S
SALINA         CLOUDY    73  65  75 SE18      30.04R
TOPEKA BILLARD CLOUDY    68  64  87 SE14      30.08R
TOPEKA FORBES  CLOUDY    70  65  84 SE10      30.07R
$$



USA.gov is the U.S. government's official web portal to all federal, state and local government web resources and services.